TimeMST,TemperatureF,Dew PointF,Humidity,Sea Level PressureIn,VisibilityMPH,Wind Direction,Wind SpeedMPH,Gust SpeedMPH,PrecipitationIn,Events,Conditions,WindDirDegrees,DateUTC
12:15 AM,39.2,37.4,93,30.13,10.0,Calm,Calm,-,N/A,,Overcast,0,2012-11-17 07:15:00
12:35 AM,39.2,35.6,87,30.13,10.0,Calm,Calm,-,N/A,,Overcast,0,2012-11-17 07:35:00
12:55 AM,39.2,37.4,93,30.13,10.0,Calm,Calm,-,N/A,,Overcast,0,2012-11-17 07:55:00
1:15 AM,39.2,37.4,93,30.12,10.0,Calm,Calm,-,N/A,,Overcast,0,2012-11-17 08:15:00
1:35 AM,37.4,35.6,93,30.12,10.0,Calm,Calm,-,N/A,,Overcast,0,2012-11-17 08:35:00
1:55 AM,39.2,37.4,93,30.12,10.0,SSE,4.6,-,N/A,,Overcast,150,2012-11-17 08:55:00
2:15 AM,37.4,37.4,100,30.13,10.0,South,4.6,-,N/A,,Overcast,170,2012-11-17 09:15:00
2:35 AM,39.2,35.6,87,30.13,10.0,South,4.6,-,N/A,,Mostly Cloudy,180,2012-11-17 09:35:00
2:55 AM,39.2,37.4,93,30.13,10.0,Calm,Calm,-,N/A,,Partly Cloudy,0,2012-11-17 09:55:00
3:15 AM,39.2,37.4,93,30.13,10.0,East,4.6,-,0.01,,Mostly Cloudy,100,2012-11-17 10:15:00
3:35 AM,41.0,37.4,87,30.12,10.0,SE,11.5,-,0.01,,Mostly Cloudy,140,2012-11-17 10:35:00
4:15 AM,41.0,39.2,93,30.12,10.0,SSE,9.2,-,N/A,,Mostly Cloudy,160,2012-11-17 11:15:00
4:35 AM,41.0,39.2,93,30.12,10.0,SE,9.2,-,N/A,,Mostly Cloudy,130,2012-11-17 11:35:00
4:55 AM,42.8,39.2,87,30.12,10.0,SE,9.2,-,N/A,,Mostly Cloudy,130,2012-11-17 11:55:00
5:15 AM,42.8,39.2,87,30.12,10.0,SSE,10.4,-,N/A,,Mostly Cloudy,150,2012-11-17 12:15:00
5:35 AM,41.0,37.4,87,30.11,10.0,SE,11.5,-,N/A,,Mostly Cloudy,130,2012-11-17 12:35:00
5:55 AM,42.8,39.2,87,30.12,10.0,SE,11.5,-,N/A,,Overcast,130,2012-11-17 12:55:00
6:35 AM,41.0,39.2,93,30.11,10.0,NNE,3.5,-,0.01,,Mostly Cloudy,20,2012-11-17 13:35:00
6:47 AM,42.8,39.2,87,30.11,15.0,Calm,Calm,-,N/A,,Mostly Cloudy,0,2012-11-17 13:47:00
7:47 AM,41.0,37.4,87,30.11,15.0,ESE,8.1,-,N/A,,Mostly Cloudy,120,2012-11-17 14:47:00
8:47 AM,42.8,39.2,87,30.12,15.0,East,4.6,-,N/A,,Mostly Cloudy,90,2012-11-17 15:47:00
9:52 AM,44.6,39.2,81,30.11,15.0,ESE,9.2,-,N/A,,Mostly Cloudy,120,2012-11-17 16:52:00
10:47 AM,46.4,41.0,81,30.11,15.0,SSW,5.8,-,N/A,,Mostly Cloudy,210,2012-11-17 17:47:00
11:54 AM,44.6,41.0,87,30.09,15.0,Variable,3.5,-,N/A,,Mostly Cloudy,0,2012-11-17 18:54:00
12:59 PM,50.0,44.6,82,30.07,15.0,Calm,Calm,-,N/A,,Mostly Cloudy,0,2012-11-17 19:59:00
1:51 PM,46.4,44.6,93,30.05,15.0,East,6.9,-,N/A,,Mostly Cloudy,90,2012-11-17 20:51:00
2:50 PM,51.8,44.6,76,30.03,15.0,Calm,Calm,-,N/A,,Mostly Cloudy,0,2012-11-17 21:50:00
3:50 PM,50.0,44.6,82,30.02,15.0,Variable,6.9,-,N/A,,Mostly Cloudy,0,2012-11-17 22:50:00
4:56 PM,48.2,42.8,82,30.01,15.0,Calm,Calm,-,N/A,,Mostly Cloudy,0,2012-11-17 23:56:00
5:47 PM,48.2,42.8,82,30.03,15.0,ESE,12.7,-,N/A,,Mostly Cloudy,110,2012-11-18 00:47:00
6:55 PM,46.4,41.0,81,30.02,15.0,East,6.9,-,N/A,,Mostly Cloudy,100,2012-11-18 01:55:00
7:57 PM,46.4,39.2,76,30.01,15.0,SE,8.1,-,N/A,,Mostly Cloudy,140,2012-11-18 02:57:00
8:55 PM,46.4,39.2,76,30.02,15.0,SE,13.8,-,N/A,,Mostly Cloudy,140,2012-11-18 03:55:00
9:15 PM,46.4,39.2,76,30.04,10.0,SSE,12.7,-,N/A,,Overcast,160,2012-11-18 04:15:00
9:35 PM,46.4,41.0,81,30.04,10.0,SE,6.9,-,0.04,,Overcast,140,2012-11-18 04:35:00
9:55 PM,44.6,42.8,93,30.04,10.0,East,5.8,-,0.07,,Overcast,100,2012-11-18 04:55:00
10:15 PM,44.6,42.8,93,30.04,10.0,East,5.8,-,0.02,,Overcast,80,2012-11-18 05:15:00
10:35 PM,44.6,42.8,93,30.04,10.0,ENE,5.8,-,0.02,,Overcast,60,2012-11-18 05:35:00
10:55 PM,44.6,42.8,93,30.03,10.0,NE,5.8,-,0.02,,Overcast,40,2012-11-18 05:55:00
11:15 PM,44.6,42.8,93,30.03,10.0,ENE,4.6,-,N/A,,Overcast,60,2012-11-18 06:15:00
11:35 PM,44.6,42.8,93,30.03,10.0,SSE,4.6,-,N/A,,Mostly Cloudy,150,2012-11-18 06:35:00
11:55 PM,44.6,41.0,87,30.03,10.0,South,3.5,-,N/A,,Overcast,190,2012-11-18 06:55:00